Temp
-1 -2 -3 -4 -4 -3 -4 -6 -5 -3 -1 -1 -2 -3 -2 -3 -4 -4 -5 -5 -5 -5 -5 -5 -5 -4 -2 -1 -2 -0 -0 1 2 3 4 6 7 10 10 12 12 12 12 11
-2 -4 -4 -3 -2 -2 -3 -4 -5 -3 -2 -2 -3 -4 -3 -3 -4 -5 -5 -5 -5 -5 -5 -5 -5 -6 -4 -2 -2 -2 -1 -0 1 1 3 4 6 9 10 7 11 12 12 11
-4 -3 -2 -1 -2 -3 -3 -5 -5 -4 -2 -4 -5 -3 -3 -3 -4 -4 -5 -5 -5 -5 -5 -5 -4 -6 -7 -4 -3 -3 -2 -1 2 1 2 2 5 7 8 7 8 12 13 12
-4 -3 -2 -2 -2 -3 -5 -2 -3 -4 -5 -6 -6 -4 -4 -4 -4 -4 -5 -5 -5 -5 -6 -6 -7 -6 -7 -7 -4 -4 -4 -2 0 1 2 4 2 5 7 6 9 12 13 12
-3 -4 -4 -3 -2 -2 -4 -3 -4 -4 -7 -9 -6 -8 -4 -5 -3 -5 -5 -4 -5 -5 -6 -7 -7 -7 -7 -7 -6 -4 -5 -4 -0 1 1 1 3 4 6 7 7 12 12 12
-5 -4 -4 -3 -2 -3 -3 -4 -5 -7 -8 -8 -9 -5 -5 -4 -5 -5 -5 -4 -4 -6 -7 -7 -8 -8 -8 -8 -8 -6 -5 -4 -1 1 1 1 1 5 5 6 8 11 11 11
-6 -4 -4 -4 -5 -4 -5 -9 -7 -6 -7 -5 -8 -6 -6 -5 -5 -5 -4 -4 -5 -6 -7 -8 -8 -8 -8 -8 -8 -8 -6 -5 -3 -0 2 2 2 4 6 4 8 9 11 11
-8 -5 -5 -4 -7 -8 -7 -11 -9 -7 -5 -5 -5 -8 -5 -6 -5 -4 -4 -4 -6 -7 -8 -8 -8 -8 -9 -9 -8 -8 -6 -5 -4 -1 1 1 1 2 4 5 7 7 11 11
-10 -6 -5 -3 -4 -8 -7 -8 -7 -10 -10 -9 -7 -7 -6 -5 -5 -4 -4 -5 -6 -8 -8 -9 -9 -9 -9 -9 -9 -9 -7 -6 -5 -1 1 1 1 1 5 5 7 8 10 11
-10 -10 -5 -4 -4 -6 -7 -8 -8 -10 -8 -9 -6 -8 -4 -7 -7 -5 -5 -6 -8 -9 -9 -9 -9 -9 -9 -9 -9 -9 -7 -6 -4 -2 1 1 0 4 5 7 6 7 8 12
-13 -10 -7 -6 -8 -11 -9 -12 -9 -9 -8 -7 -7 -5 -9 -9 -6 -6 -6 -7 -9 -9 -10 -10 -10 -9 -9 -9 -9 -8 -6 -5 -4 -2 1 1 -0 4 6 6 8 8 8 11
-10 -12 -11 -8 -10 -13 -12 -12 -11 -8 -10 -7 -7 -6 -5 -6 -5 -6 -7 -9 -10 -10 -10 -10 -9 -10 -9 -9 -9 -8 -5 -4 -3 -2 0 2 1 4 6 9 8 8 9 11
-10 -12 -10 -8 -9 -9 -11 -14 -11 -8 -8 -10 -8 -6 -3 -5 -6 -7 -9 -10 -10 -10 -10 -10 -10 -10 -10 -9 -8 -6 -4 -4 -3 -3 -1 2 1 7 6 3 7 8 10 10
-5 -12 -10 -9 -6 -12 -9 -9 -11 -8 -10 -9 -8 -7 -7 -7 -8 -9 -10 -10 -10 -10 -10 -10 -10 -10 -10 -9 -8 -6 -4 -4 -3 -3 -0 2 2 7 4 4 8 8 10 11
-8 -10 -9 -8 -7 -8 -10 -11 -12 -11 -11 -12 -7 -9 -8 -8 -10 -10 -10 -11 -10 -10 -10 -10 -10 -10 -10 -9 -8 -6 -4 -3 -3 -1 -0 0 6 6 5 8 9 8 10 11
-9 -9 -10 -10 -8 -13 -12 -12 -11 -12 -13 -13 -11 -11 -9 -9 -10 -10 -11 -11 -10 -10 -10 -10 -10 -10 -10 -9 -8 -5 -3 -1 -1 1 1 3 7 7 8 9 9 9 10 10
-11 -9 -10 -10 -8 -10 -10 -13 -14 -13 -17 -14 -13 -10 -10 -10 -11 -11 -11 -11 -10 -11 -11 -11 -10 -10 -9 -8 -6 -3 -2 -1 0 1 1 8 8 7 8 9 9 10 9 10
-10 -11 -10 -10 -9 -10 -10 -16 -13 -14 -11 -18 -14 -11 -11 -11 -11 -11 -10 -10 -11 -11 -11 -11 -11 -10 -9 -6 -3 -2 -0 0 2 2 5 7 6 8 9 9 9 9 9 10
-9 -10 -10 -11 -11 -9 -9 -10 -11 -14 -12 -18 -14 -12 -12 -12 -12 -8 -9 -11 -11 -11 -11 -11 -10 -10 -7 -3 -1 -0 2 1 2 4 8 6 8 8 9 10 10 9 9 9
-9 -10 -11 -10 -11 -10 -11 -9 -8 -13 -13 -11 -11 -12 -13 -12 -11 -10 -11 -11 -11 -11 -11 -11 -10 -9 -5 1 1 2 3 2 4 5 6 7 8 8 9 10 9 10 9 8
-13 -15 -12 -10 -11 -9 -9 -9 -7 -10 -11 -11 -12 -13 -13 -12 -12 -12 -12 -11 -11 -11 -11 -10 -10 -7 -2 1 3 3 3 4 6 5 7 8 8 9 11 11 10 8 10 8
-12 -12 -12 -12 -14 -9 -9 -9 -10 -9 -10 -12 -12 -13 -13 -13 -13 -12 -12 -12 -11 -11 -10 -9 -10 -7 -5 -3 2 3 6 6 6 7 8 8 8 8 9 10 8 8 11 8
-12 -11 -12 -10 -8 -8 -9 -8 -9 -11 -12 -12 -13 -12 -13 -13 -12 -12 -12 -12 -11 -11 -10 -10 -9 -7 -5 4 5 6 6 7 7 8 8 8 9 9 9 9 7 11 9 7
-14 -12 -12 -10 -8 -8 -7 -8 -9 -10 -11 -11 -12 -12 -13 -13 -13 -13 -12 -12 -11 -11 -10 -9 -8 -7 -4 1 4 5 6 7 7 7 8 8 8 8 8 8 8 10 7 7
-11 -13 -12 -12 -10 -7 -8 -8 -10 -10 -10 -11 -11 -11 -12 -12 -12 -13 -12 -11 -11 -10 -9 -8 -8 -7 -5 -3 1 3 6 7 7 8 8 8 8 8 7 7 9 9 7 7
-12 -13 -12 -10 -8 -10 -8 -8 -10 -11 -11 -11 -12 -12 -10 -12 -12 -11 -11 -11 -10 -9 -9 -7 -7 -6 -6 -4 -1 3 5 6 6 7 7 7 7 7 6 6 7 6 7 7
Height
1533 1537 1544 1544 1542 1543 1543 1545 1535 1520 1511 1508 1502 1497 1489 1491 1492 1491 1489 1487 1485 1482 1479 1477 1473 1469 1465 1463 1459 1458 1455 1454 1442 1440 1442 1439 1443 1444 1451 1465 1467 1481 1490 1499
1538 1547 1546 1543 1541 1540 1537 1535 1530 1515 1510 1511 1500 1493 1487 1486 1490 1489 1488 1486 1483 1477 1470 1467 1465 1464 1459 1455 1452 1451 1454 1451 1446 1440 1442 1444 1448 1450 1450 1459 1477 1471 1481 1493
1545 1548 1544 1541 1542 1538 1535 1534 1530 1525 1507 1507 1505 1490 1486 1485 1485 1486 1486 1484 1481 1477 1470 1459 1453 1453 1451 1447 1444 1444 1439 1435 1442 1447 1441 1445 1441 1445 1445 1435 1441 1454 1471 1485
1548 1548 1546 1544 1541 1541 1539 1526 1521 1519 1521 1520 1511 1501 1489 1485 1485 1484 1483 1480 1476 1471 1464 1459 1451 1442 1442 1440 1436 1433 1435 1437 1435 1434 1432 1430 1444 1437 1442 1450 1454 1452 1465 1481
1551 1550 1548 1546 1543 1540 1536 1523 1518 1516 1524 1532 1515 1524 1490 1490 1482 1483 1481 1476 1471 1467 1460 1454 1448 1440 1434 1433 1431 1425 1426 1425 1430 1428 1431 1437 1438 1438 1443 1443 1442 1442 1462 1475
1553 1550 1550 1548 1542 1538 1534 1520 1517 1520 1528 1536 1528 1516 1495 1486 1485 1483 1478 1475 1468 1459 1451 1445 1440 1433 1427 1425 1423 1417 1414 1416 1415 1416 1421 1424 1424 1426 1436 1434 1443 1441 1456 1469
1558 1550 1549 1547 1545 1538 1538 1539 1539 1527 1528 1518 1522 1514 1491 1484 1484 1480 1476 1468 1463 1456 1446 1438 1431 1424 1418 1414 1412 1409 1405 1402 1405 1406 1406 1404 1405 1419 1427 1435 1441 1450 1449 1460
1580 1557 1553 1550 1554 1557 1553 1561 1567 1561 1530 1517 1514 1520 1484 1479 1478 1476 1472 1467 1459 1450 1441 1432 1423 1417 1411 1407 1403 1401 1396 1394 1398 1401 1403 1408 1416 1418 1424 1433 1437 1442 1442 1451
1590 1567 1553 1550 1551 1556 1555 1561 1560 1567 1556 1553 1518 1503 1485 1480 1477 1473 1468 1461 1451 1442 1435 1426 1417 1408 1401 1398 1394 1390 1387 1385 1387 1389 1396 1403 1409 1416 1428 1432 1431 1437 1437 1447
1586 1587 1554 1553 1553 1556 1559 1561 1565 1570 1559 1550 1515 1515 1483 1482 1479 1471 1460 1454 1447 1439 1428 1418 1410 1399 1391 1386 1381 1379 1376 1374 1378 1379 1385 1394 1398 1409 1419 1419 1426 1429 1437 1443
1585 1587 1564 1556 1561 1570 1563 1575 1566 1568 1563 1551 1535 1492 1486 1484 1476 1467 1458 1452 1442 1430 1419 1409 1399 1391 1382 1374 1369 1366 1365 1365 1369 1372 1377 1385 1393 1400 1412 1414 1420 1423 1429 1432
1580 1587 1582 1561 1559 1560 1565 1569 1570 1564 1569 1552 1543 1498 1477 1480 1477 1471 1461 1448 1435 1425 1412 1401 1390 1381 1372 1364 1358 1354 1354 1356 1359 1366 1370 1378 1382 1399 1403 1402 1417 1424 1424 1432
1578 1589 1584 1561 1563 1560 1565 1569 1562 1558 1557 1561 1547 1492 1471 1477 1475 1469 1456 1441 1426 1414 1402 1392 1381 1370 1362 1354 1347 1345 1344 1347 1351 1356 1362 1369 1378 1384 1394 1406 1409 1416 1418 1422
1573 1587 1583 1583 1555 1566 1559 1556 1559 1555 1558 1549 1534 1490 1477 1478 1469 1456 1445 1431 1418 1406 1393 1383 1371 1360 1351 1343 1337 1336 1336 1341 1344 1351 1357 1366 1372 1383 1398 1399 1403 1408 1416 1423
1575 1581 1570 1559 1553 1553 1555 1556 1558 1560 1554 1557 1509 1508 1491 1483 1471 1456 1442 1424 1410 1395 1383 1372 1361 1350 1340 1333 1327 1327 1328 1332 1337 1341 1351 1360 1372 1386 1394 1391 1396 1406 1411 1422
1575 1574 1568 1560 1546 1558 1558 1555 1554 1550 1547 1540 1525 1505 1493 1483 1470 1454 1436 1420 1405 1389 1375 1362 1350 1340 1329 1322 1318 1317 1319 1322 1327 1334 1342 1356 1371 1383 1380 1387 1396 1401 1410 1421
1578 1574 1572 1559 1545 1548 1556 1557 1554 1544 1543 1535 1529 1502 1490 1474 1462 1446 1427 1417 1401 1383 1368 1353 1340 1330 1320 1312 1308 1309 1312 1319 1326 1334 1342 1353 1364 1371 1379 1387 1394 1402 1410 1417
1575 1578 1576 1567 1549 1560 1545 1543 1540 1539 1523 1525 1520 1505 1493 1480 1462 1444 1433 1419 1395 1377 1361 1346 1332 1320 1310 1303 1301 1304 1308 1314 1323 1331 1340 1352 1363 1368 1376 1381 1391 1401 1409 1415
1571 1576 1578 1578 1570 1546 1538 1541 1539 1540 1522 1521 1517 1499 1485 1470 1450 1433 1428 1413 1394 1373 1357 1346 1331 1316 1305 1300 1300 1303 1306 1314 1324 1331 1341 1351 1360 1368 1375 1384 1390 1404 1411 1417
1572 1576 1582 1574 1576 1561 1544 1536 1529 1530 1532 1518 1512 1499 1485 1469 1444 1421 1410 1398 1383 1366 1348 1336 1322 1311 1303 1298 1298 1303 1310 1316 1323 1329 1341 1349 1359 1368 1374 1376 1391 1401 1411 1415
1581 1586 1584 1575 1574 1550 1540 1535 1527 1538 1529 1515 1511 1501 1489 1477 1472 1445 1425 1405 1391 1372 1345 1337 1315 1309 1299 1297 1299 1307 1314 1320 1323 1338 1343 1353 1360 1368 1371 1376 1391 1402 1406 1413
1581 1584 1582 1580 1589 1556 1537 1533 1540 1534 1525 1520 1510 1500 1489 1475 1459 1445 1428 1409 1387 1372 1348 1330 1331 1318 1322 1315 1306 1309 1318 1323 1329 1337 1346 1355 1365 1370 1376 1384 1395 1399 1397 1413
1577 1569 1575 1566 1550 1536 1536 1536 1534 1530 1523 1518 1511 1500 1489 1474 1459 1445 1429 1411 1395 1382 1361 1349 1335 1320 1308 1300 1305 1316 1323 1327 1332 1340 1350 1355 1361 1370 1375 1380 1388 1389 1401 1413
1564 1561 1565 1560 1540 1535 1534 1532 1530 1526 1520 1515 1510 1500 1489 1476 1461 1447 1432 1416 1398 1384 1369 1360 1344 1327 1322 1322 1322 1329 1332 1337 1343 1350 1358 1364 1369 1375 1382 1384 1388 1392 1408 1415
1559 1559 1557 1551 1537 1535 1531 1529 1526 1522 1517 1513 1508 1500 1491 1479 1465 1453 1438 1424 1411 1395 1376 1374 1357 1348 1339 1336 1339 1340 1343 1345 1352 1360 1363 1365 1369 1372 1377 1383 1390 1399 1409 1412
1546 1544 1549 1542 1534 1534 1529 1527 1524 1519 1514 1507 1503 1496 1490 1482 1470 1459 1447 1435 1421 1408 1402 1380 1374 1365 1357 1349 1339 1339 1346 1354 1360 1360 1360 1364 1365 1375 1384 1389 1393 1405 1405 1412
Wind_Speed
6 8 5 5 1 3 4 4 12 14 10 18 12 20 15 5 1 6 11 15 19 23 27 27 28 39 42 41 37 30 25 18 25 23 26 33 27 34 11 24 63 66 60 61
4 3 5 5 2 7 10 12 8 12 7 17 10 19 8 4 3 1 8 14 20 28 41 43 39 29 42 44 37 32 25 21 20 19 24 33 31 30 27 17 50 68 64 61
4 3 9 4 4 17 12 4 5 13 23 3 9 5 2 1 3 5 11 15 19 28 37 49 52 39 31 39 37 33 30 27 20 16 21 30 33 40 37 31 25 74 67 64
2 6 7 5 7 12 7 3 19 18 9 3 6 5 4 1 6 3 13 19 27 38 42 38 41 48 37 35 38 36 32 24 23 19 22 25 32 45 39 26 15 74 67 65
4 6 5 4 11 10 7 22 17 9 1 4 3 3 6 2 5 6 16 24 31 42 40 38 39 42 44 34 37 37 34 30 23 19 20 26 37 39 39 22 20 69 69 67
3 4 1 4 13 5 14 10 1 3 2 2 4 4 5 3 2 5 13 24 41 47 44 42 39 41 42 39 35 35 34 30 25 24 25 29 27 39 34 18 11 68 71 68
7 3 3 7 4 4 11 7 5 6 4 4 5 4 10 4 3 6 17 35 45 47 45 45 43 43 44 42 36 31 32 33 26 26 26 28 28 43 34 26 17 47 72 71
5 6 4 9 4 4 4 4 3 5 5 8 12 6 6 4 6 11 29 39 45 47 47 47 49 47 44 42 35 33 34 33 28 29 28 32 36 36 43 32 25 23 76 72
5 5 3 1 2 4 5 5 1 2 2 2 5 7 9 4 7 18 34 44 50 53 51 48 49 50 48 39 38 35 33 33 30 31 30 34 36 39 50 37 23 11 64 72
2 6 3 3 2 4 4 1 3 3 7 7 7 6 7 6 9 22 31 42 51 52 50 49 48 49 46 44 39 32 31 32 30 32 33 38 34 42 46 38 28 14 56 71
4 3 6 4 1 4 2 3 3 1 2 3 6 8 5 4 14 30 33 49 53 52 50 49 51 45 45 40 36 30 28 29 30 33 35 41 34 36 40 32 21 19 59 75
3 3 4 6 4 4 3 5 4 0 4 5 7 9 4 3 28 35 44 53 54 50 50 52 44 46 40 38 31 25 24 26 30 34 36 46 34 38 39 29 23 42 68 71
3 1 6 7 3 2 2 3 4 3 3 5 4 10 15 27 29 42 48 52 54 52 52 44 46 42 39 37 28 22 24 28 32 35 38 42 34 39 37 39 19 59 63 64
1 2 7 7 14 2 12 8 5 3 2 3 14 30 30 26 30 43 51 55 55 52 47 48 45 43 41 37 25 20 23 29 31 37 42 44 37 48 45 35 23 60 64 58
3 4 5 14 17 11 8 9 4 4 7 4 22 27 28 25 32 45 51 55 51 50 55 50 47 46 43 36 23 18 22 30 34 42 48 37 42 41 39 21 35 62 63 60
1 4 4 8 2 4 3 3 6 7 8 12 16 27 12 43 45 45 50 48 47 57 55 53 51 47 44 37 22 14 18 25 37 48 48 37 42 42 25 30 50 60 60 58
1 3 5 5 7 3 3 6 5 8 6 8 7 15 30 30 34 46 53 46 55 57 56 55 52 48 44 32 14 12 16 23 39 48 35 44 42 31 35 44 49 54 59 56
2 1 1 5 8 4 6 3 7 9 16 5 6 21 31 36 47 51 38 49 57 60 59 56 53 51 40 16 4 10 19 25 38 34 39 49 38 42 39 48 53 56 55 56
9 2 4 3 2 6 2 3 6 4 10 4 9 26 40 48 46 33 46 57 58 62 59 52 51 46 27 10 0 14 24 26 36 38 47 38 33 39 41 43 37 42 44 49
5 3 2 3 2 4 5 6 21 6 5 3 32 32 35 42 20 22 71 70 68 67 64 58 54 41 30 6 10 25 34 32 40 37 37 33 42 43 41 33 35 27 31 46
3 2 3 3 4 7 3 18 17 6 7 34 32 35 36 20 32 54 60 64 62 61 66 60 59 52 34 12 11 24 32 31 47 40 38 42 41 39 31 26 25 33 17 34
3 1 2 1 2 7 2 4 3 8 29 28 35 33 38 43 49 52 56 58 63 64 68 69 58 50 37 26 22 24 31 35 36 37 40 43 43 38 36 32 33 25 25 31
2 5 3 7 5 3 16 16 9 23 26 26 33 41 39 42 46 51 55 58 59 59 64 64 61 55 49 33 38 34 35 36 34 37 37 35 31 27 24 23 26 13 15 34
3 5 3 3 3 7 26 9 21 27 26 32 33 37 39 39 46 49 53 57 62 62 64 62 63 58 50 32 27 24 31 27 34 37 36 32 31 28 24 21 17 17 25 30
3 7 4 6 15 17 5 14 25 25 29 33 34 34 37 40 45 47 51 55 57 59 63 59 59 57 48 41 23 20 29 29 34 33 31 29 26 22 20 23 17 16 19 18
11 7 5 5 4 7 21 26 22 24 29 31 33 37 36 37 41 44 48 50 53 55 52 55 53 52 48 40 33 25 26 25 24 26 23 23 21 20 22 25 28 20 15 14
Wind_Direction
18 54 21 319 330 200 254 249 280 282 283 327 306 292 301 237 58 26 7 1 350 341 337 335 331 333 330 331 326 325 322 316 304 300 290 268 257 240 278 200 184 193 194 189
29 68 313 288 237 336 318 300 291 287 298 318 324 295 307 171 189 248 353 350 345 340 338 335 332 329 326 324 320 318 313 311 304 298 283 268 256 227 236 291 191 196 195 191
87 8 323 347 332 346 330 240 292 294 324 284 313 293 350 215 229 268 338 341 340 341 335 332 329 327 324 322 316 315 310 307 291 286 272 260 252 244 245 323 241 193 195 193
42 349 351 338 352 354 308 279 303 304 326 293 8 296 305 288 284 277 327 341 341 339 331 326 323 323 323 319 313 307 304 298 282 286 272 257 257 257 248 267 202 187 194 193
293 356 350 1 339 336 275 303 305 291 208 10 347 38 278 327 313 333 342 335 334 334 329 323 320 319 319 315 313 302 299 293 271 268 254 228 244 247 246 261 326 187 193 194
256 307 271 319 309 325 323 307 352 78 102 360 239 58 279 275 247 299 312 329 335 332 326 321 318 316 314 315 310 301 294 287 271 259 252 232 230 244 249 248 347 182 188 191
332 334 346 348 330 328 360 352 349 356 5 256 210 4 249 263 230 281 325 336 332 329 324 321 318 316 312 312 310 303 293 283 270 253 247 243 235 244 248 245 259 180 187 188
24 336 16 350 136 244 347 83 111 304 308 303 308 226 260 191 221 300 335 329 328 328 323 319 317 313 309 308 303 296 289 278 264 243 231 225 218 231 246 240 240 223 189 189
6 272 320 321 71 109 323 35 212 265 265 310 268 287 300 206 291 331 327 328 330 327 320 314 312 309 308 303 299 294 283 272 257 239 228 214 208 224 232 230 227 214 184 191
241 296 246 308 65 58 102 278 11 7 330 314 289 285 261 306 312 329 328 327 324 319 314 313 310 307 307 303 299 290 274 263 249 235 223 213 208 223 231 225 234 265 187 195
145 146 293 349 55 188 7 19 28 219 261 290 308 282 219 261 333 330 323 321 318 314 312 313 309 310 306 303 300 287 265 252 238 226 221 208 212 217 225 221 228 207 184 191
217 166 283 260 295 162 136 179 139 90 289 257 271 270 295 313 328 322 318 316 313 312 312 312 310 312 309 306 302 278 256 245 232 220 218 206 196 213 219 186 226 196 192 192
206 338 319 348 3 42 171 249 188 213 230 234 270 274 312 318 319 320 316 315 313 314 314 316 316 314 311 310 300 269 244 238 229 221 213 198 202 210 220 237 230 191 196 193
181 153 175 227 257 175 298 284 234 220 236 260 273 294 308 317 322 320 319 316 315 315 316 320 319 317 315 313 298 265 241 226 229 219 200 193 202 203 221 230 229 185 197 197
93 250 212 250 262 280 257 265 167 177 236 251 305 297 299 315 319 315 314 312 315 318 323 323 322 320 317 314 301 264 231 224 224 205 198 197 192 205 220 208 191 184 192 201
54 270 344 287 136 136 267 183 202 233 254 260 286 284 287 313 315 316 317 316 317 323 323 323 323 321 318 315 301 258 229 220 204 195 194 191 191 205 191 203 189 187 192 195
20 323 342 271 317 63 14 219 227 253 243 257 287 299 316 319 322 320 316 316 323 322 324 324 324 321 319 318 296 237 196 202 196 194 194 175 191 198 178 187 186 191 196 199
272 337 204 288 331 17 241 226 229 246 294 229 298 310 319 315 313 309 315 327 323 325 327 327 326 326 332 332 245 213 178 182 189 188 179 183 190 174 172 181 186 189 196 200
204 82 311 317 249 290 8 287 309 15 309 202 301 323 321 321 319 320 335 334 328 327 328 330 332 334 349 11 262 188 178 189 191 184 179 186 180 169 164 169 173 191 198 199
90 74 138 339 332 277 239 288 324 138 297 317 336 323 322 328 335 329 333 333 333 333 334 339 346 355 8 60 154 176 177 195 171 173 184 179 177 173 166 159 176 183 200 208
343 19 203 276 276 287 277 322 345 38 271 327 324 319 322 324 315 312 324 330 335 337 339 349 360 12 28 29 171 186 188 172 168 173 171 164 170 167 153 148 170 182 199 208
173 121 272 82 335 320 337 338 60 286 310 317 326 322 321 320 321 326 331 335 340 346 352 358 0 12 20 33 183 188 147 166 173 169 161 163 163 159 159 162 179 186 179 216
326 187 207 185 233 275 322 323 322 331 322 328 326 333 330 326 328 333 335 340 344 350 354 1 6 12 25 74 95 129 134 156 159 159 160 154 150 148 150 157 164 149 204 213
262 184 211 359 249 272 311 312 337 334 331 334 342 341 340 333 339 340 344 346 350 353 1 10 11 21 29 58 85 126 143 164 159 154 152 149 151 152 161 154 157 145 203 206
214 152 210 260 288 312 286 317 332 331 335 339 343 350 345 349 351 351 352 354 355 360 5 15 16 20 30 39 74 117 135 142 147 148 144 141 141 142 158 156 133 154 196 204
190 190 170 235 250 277 296 320 330 335 337 340 344 346 350 356 357 359 1 2 360 4 11 12 22 23 29 38 51 88 118 130 132 130 127 128 129 148 164 161 146 174 179 186